Regional Weather Roundup
Issued by NWS Little Rock, AR

Home | Current Version | Previous Version | Text Only | Print | Product List | Glossary Off
Versions: 1 2 3 4 5 6 7 8 9 10 11 12 13 14 15 16 17 18 19 20 21 22 23 24 25 26 27 28 29 30 31 32 33 34 35 36 37 38 39 40 41 42 43 44 45 46 47 48 49 50

000
ASUS44 KLZK 281205
RWRLZK

WEATHER ROUNDUP FOR ARKANSAS
NATIONAL WEATHER SERVICE LITTLE ROCK AR
700 AM CDT MON JUL 28 2014

NOTE: "FAIR" INDICATES FEW OR NO CLOUDS BELOW 12,000 FEET WITH NO
SIGNIFICANT WEATHER AND/OR OBSTRUCTIONS TO VISIBILITY.

ARZ001-003-010-029-281300-
NORTHWEST ARKANSAS

CITY           SKY/WX    TMP DP  RH WIND       PRES   REMARKS
FAYETTEVILLE   CLEAR     61  61 100 CALM      30.18R
6HR MIN TEMP:  60; 6HR MAX TEMP:  66;

FORT SMITH     CLEAR     72  64  76 CALM      30.12R
6HR MIN TEMP:  71; 6HR MAX TEMP:  80;

HARRISON       CLEAR     64  59  83 NW5       30.17R
6HR MIN TEMP:  63; 6HR MAX TEMP:  71;

BENTONVILLE    CLEAR     64  57  77 NE5       30.18S
6HR MIN TEMP:  64; 6HR MAX TEMP:  72;

ROGERS         CLEAR     61  58  90 CALM      30.19R
6HR MIN TEMP:  61; 6HR MAX TEMP:  69;

SILOAM SPGS    CLEAR     63  54  72 N3        30.19R
6HR MIN TEMP:  63; 6HR MAX TEMP:  70;

HIGHFILL       CLEAR     63  59  87 CALM      30.18R
6HR MIN TEMP:  61; 6HR MAX TEMP:  70;

SPRINGDALE     CLEAR     68  59  73 NE8       30.19R
$$

ARZ004-005-016-281300-
NORTH CENTRAL ARKANSAS

CITY           SKY/WX    TMP DP  RH WIND       PRES   REMARKS
BATESVILLE     CLEAR     66  63  88 CALM      30.10R
6HR MIN TEMP:  66; 6HR MAX TEMP:  75;

FLIPPIN        CLEAR     66  59  77 NW5       30.14R
6HR MIN TEMP:  66; 6HR MAX TEMP:  73;

MTN HOME       CLEAR     63  60  90 NW3       30.13R
6HR MIN TEMP:  60; 6HR MAX TEMP:  72;

$$

ARZ040-041-281300-
WEST CENTRAL ARKANSAS

CITY           SKY/WX    TMP DP  RH WIND       PRES   REMARKS
MENA           CLEAR     77  64  65 CALM      30.13S
MOUNT IDA      PTCLDY    71  70  96 CALM      30.09S FOG
6HR MIN TEMP:  71; 6HR MAX TEMP:  77;

$$

ARZ009-017-025-026-028-281300-
NORTHEAST ARKANSAS

CITY           SKY/WX    TMP DP  RH WIND       PRES   REMARKS
JONESBORO      CLEAR     69  62  78 NW5       30.07R
6HR MIN TEMP:  68; 6HR MAX TEMP:  77;

NEWPORT        CLEAR     69  63  81 NW13      30.09R
6HR MIN TEMP:  67; 6HR MAX TEMP:  77;

WALNUT RIDGE   CLEAR     66  59  77 NW8       30.07R
6HR MIN TEMP:  64; 6HR MAX TEMP:  75;

BLYTHEVILLE    CLEAR     68  65  90 NW3       30.06R
6HR MIN TEMP:  64; 6HR MAX TEMP:  76;

$$

ARZ022-023-033-042-044-281300-
CENTRAL ARKANSAS

CITY           SKY/WX    TMP DP  RH WIND       PRES   REMARKS
LITTLE ROCK    PTCLDY    75  62  64 N9        30.08R
6HR MIN TEMP:  74; 6HR MAX TEMP:  83;

N LITTLE ROCK    N/A     73  65  75 N7        30.08R
6HR MIN TEMP:  73; 6HR MAX TEMP:  82;

JACKSONVILLE   CLEAR     73  63  72 N5        30.08R
6HR MIN TEMP:  70; 6HR MAX TEMP:  80;

SEARCY         CLEAR     72  63  73 NW5       30.09R
6HR MIN TEMP:  70; 6HR MAX TEMP:  81;

HOT SPRINGS    PTCLDY    75  63  66 VRB5      30.10R
6HR MIN TEMP:  73; 6HR MAX TEMP:  79;

RUSSELLVILLE   CLEAR     70  66  87 NW3       30.11R
6HR MIN TEMP:  68; 6HR MAX TEMP:  80;

CLINTON        FAIR      64  64 100 CALM      30.12R
$$

ARZ036-281300-
EAST ARKANSAS

CITY           SKY/WX    TMP DP  RH WIND       PRES   REMARKS
WEST MEMPHIS   CLEAR     70  66  87 N5        30.05R
6HR MIN TEMP:  69; 6HR MAX TEMP:  80;

$$

ARZ050-053-066-070-073-281300-
SOUTHWEST ARKANSAS

CITY           SKY/WX    TMP DP  RH WIND       PRES   REMARKS
ARKADELPHIA    FAIR      77  65  66 CALM      30.08R
6HR MIN TEMP:  76; 6HR MAX TEMP:  81;

CAMDEN         MOCLDY    77  66  69 NE5       30.07R
TEXARKANA      MOCLDY    77  75  93 E3        30.07R
6HR MIN TEMP:  77; 6HR MAX TEMP:  84;

EL DORADO      CLOUDY    79  75  87 CALM      30.08R
6HR MIN TEMP:  78; 6HR MAX TEMP:  80;

DE QUEEN       MOCLDY    75  74  96 CALM      30.06R
6HR MIN TEMP:  74; 6HR MAX TEMP:  76;

$$

ARZ056-057-069-281300-
SOUTHEAST ARKANSAS

CITY           SKY/WX    TMP DP  RH WIND       PRES   REMARKS
PINE BLUFF     CLEAR     74  66  76 N7        30.07R
6HR MIN TEMP:  74; 6HR MAX TEMP:  82; 6HR PCP:  0.04;

STUTTGART      CLEAR     72  64  78 N7        30.07R
6HR MIN TEMP:  72; 6HR MAX TEMP:  81;

MONTICELLO     CLOUDY    79  66  64 NE3       30.07R
6HR MIN TEMP:  79; 6HR MAX TEMP:  83;


$$





USA.gov is the U.S. government's official web portal to all federal, state and local government web resources and services.